Simultaneous Nadir Overpasses (SNOs) Predictions

Prediction of SNOs between METOP-A and TERRA Satellite Orbit:

Table of predicted SNOs for the next 14.0 days since TLE Epoch: 2/11/2017
Index Date (METOP-A) Time (METOP-A) Lat,Lon (METOP-A) SZA (METOP-A ) Date (TERRA) Time (TERRA) Lat,Lon (TERRA) SZA (TERRA ) Distance(km) Time Diff (sec)
1 02/13/2017 04:54:34 81.31, 153.29 96.88 02/13/2017 04:55:39 81.31, 153.23 96.90 0.98 65
2 02/13/2017 05:45:14 -81.31, -39.22 83.12 02/13/2017 05:45:06 -81.31, -39.18 83.12 0.94 8
3 02/16/2017 00:28:55 81.31,-140.50 95.91 02/16/2017 00:29:53 81.31,-140.34 95.95 2.59 58
4 02/16/2017 01:19:34 -81.32, 27.41 84.05 02/16/2017 01:19:20 -81.31, 27.27 84.08 2.58 14
5 02/18/2017 20:03:16 81.31, -73.91 94.95 02/18/2017 20:04:08 81.31, -73.90 94.97 0.25 52
6 02/
